User: anonymous   Login
Location: Newark
(55.7681°N, 37.7103°E)
Time: 12:47:08
(UTC+00:00)
Language:

XW-2D - Orbit

View from above orbital plane
View from above orbital plane
View from above satellite
View from above satellite

Ground track
Ground track

The orbit data is extracted from the following two-line orbital elements,

1 40907U 15049J   19348.05971191  .00000756  00000-0  42703-4 0  9995
2 40907  97.4701 346.9351 0012774 302.2741 129.4004 15.16064937234035
Epoch (UTC): 14 December 2019 01:25:59
Eccentricity: 0.0012774
inclination: 97.4701°
perigee height: 509 km
apogee height: 526 km
right ascension of ascending node: 346.9351°
argument of perigee: 302.2741°
revolutions per day: 15.16064937
mean anomaly at epoch: 129.4004°
orbit number at epoch: 23403

The dashed part of the orbit path shows where the satellite is in the earth's shadow,  

DLR